Port Angeles, WA
on Tuesday, December 18, 2012

Tuesday
Previous Day Next Day
Daily Summary
 ActualAverageRecord
Temperature
Mean Temperature °F °F  
Max Temperature 42°F 45°F 54°F (1979)
Min Temperature 28°F 34°F 17°F (1964)
Degree Days
Heating Degree Days 30    
Moisture
Dew Point 30°F   
Average Humidity 82    
Maximum Humidity 92    
Minimum Humidity 62    
Precipitation
Precipitation 0.00 in in in ()
Wind
Wind Speed 5 mph   
Max Wind Speed 10 mph   
Max Gust Speed mph   
Visibility 10 miles   
Events Snow   
Averages and records for this station are not official NWS values.
Key: T is trace of precipitation, MM is missing value
Source: NWS Daily Summary
Seasonal Weather Averages
Time(PST)TemperatureDew PointHumidity Pressure Visibility Wind DirectionWind SpeedGust SpeedPrecipitationEvents Conditions
12:53 AM 33.1°F 30.0°F 89% 29.84 in 10.0 miles SW 5.8 mph - N/A   Overcast
1:53 AM 35.1°F 30.9°F 85% 29.84 in 10.0 miles WSW 5.8 mph - N/A   Overcast
2:05 AM 34.0°F 30.9°F 89% 29.83 in 9.0 miles SW 4.6 mph - 0.00 in Snow Light Snow
2:21 AM 33.1°F 30.0°F 89% 29.83 in 10.0 miles SSW 4.6 mph - 0.00 in   Mostly Cloudy
2:53 AM 34.0°F 30.9°F 89% 29.84 in 10.0 miles SW 4.6 mph - 0.00 in   Overcast
3:53 AM 34.0°F 30.9°F 89% 29.85 in 3.0 miles WSW 10.4 mph - 0.00 in   Overcast
4:13 AM 34.0°F 32.0°F 92% 29.84 in 9.0 miles North - - 0.00 in Snow Light Snow
4:53 AM 33.1°F 30.0°F 89% 29.84 in 10.0 miles North - - 0.00 in   Scattered Clouds
5:53 AM 34.0°F 28.9°F 82% 29.85 in 10.0 miles North - - N/A   Mostly Cloudy
6:53 AM 36.0°F 30.0°F 79% 29.87 in 10.0 miles North - - N/A   Mostly Cloudy
7:04 AM 35.1°F 32.0°F 89% 29.86 in 10.0 miles North - - N/A   Overcast
7:53 AM 33.1°F 30.0°F 89% 29.87 in 10.0 miles SSW 3.5 mph - N/A   Clear
8:53 AM 34.0°F 30.0°F 85% 29.89 in 10.0 miles SW 4.6 mph - N/A   Mostly Cloudy
9:53 AM 34.0°F 28.9°F 82% 29.90 in 10.0 miles WSW 3.5 mph - N/A   Clear
10:53 AM 37.0°F 30.0°F 76% 29.91 in 10.0 miles SW 4.6 mph - N/A   Scattered Clouds
11:53 AM 39.9°F 30.0°F 68% 29.92 in 10.0 miles Variable 5.8 mph - N/A   Mostly Cloudy
12:53 PM 39.9°F 30.0°F 68% 29.92 in 10.0 miles West 9.2 mph - N/A   Clear
1:53 PM 42.1°F 30.0°F 62% 29.91 in 10.0 miles WSW 5.8 mph - N/A   Clear
2:53 PM 39.9°F 30.0°F 68% 29.92 in 10.0 miles Calm Calm - N/A   Clear
3:53 PM 37.0°F 30.9°F 79% 29.93 in 10.0 miles Calm Calm - N/A   Mostly Cloudy
4:53 PM 33.1°F 30.0°F 89% 29.93 in 10.0 miles Calm Calm - N/A   Clear
5:53 PM 33.1°F 28.0°F 82% 29.93 in 10.0 miles SW 8.1 mph - N/A   Clear
6:53 PM 28.9°F 27.0°F 92% 29.93 in 10.0 miles SSE 5.8 mph - N/A   Clear
7:53 PM 32.0°F 28.0°F 85% 29.92 in 10.0 miles SW 6.9 mph - N/A   Clear
8:53 PM 34.0°F 27.0°F 75% 29.91 in 10.0 miles Variable 5.8 mph - N/A   Clear
9:53 PM 35.1°F 27.0°F 72% 29.89 in 10.0 miles North - - N/A   Clear
10:53 PM 30.9°F 27.0°F 85% 29.86 in 10.0 miles North - - N/A   Mostly Cloudy
11:53 PM 34.0°F 28.0°F 79% 29.84 in 10.0 miles North - - N/A   Overcast
Moon Phase
Dec. 18 Dec. 20 Dec. 28 Jan. 04 Jan. 11
Sunrise:08:00 AM (PST) Moon Rise:11:17 AM (PST)12/18
Sunset:04:21 PM (PST) Moon Set:11:21 PM (PST)12/18

Copyright © 2014 The Weather Underground, Inc.